This is the latest recevied weather packets stored in our database for station/object N3FYI-5. If no packets are shown the sender has not sent any weather packets the latest 10 day(s).
| Time | Temp. | Humidity | Pressure | Rain* | Wind** | Luminosity | Snow |
|---|---|---|---|---|---|---|---|
| 1777749756 | 5.56° C | 61% | 1023.6 hPa | 0 mm | - | - | - |
| 1777749277 | 6.11° C | 61% | 1023.7 hPa | 0 mm | - | - | - |
| 1777748795 | 6.11° C | 59% | 1023.7 hPa | 0 mm | - | - | - |
| 1777748320 | 6.11° C | 59% | 1023.6 hPa | 0 mm | - | - | - |
| 1777747836 | 6.11° C | 61% | 1023.7 hPa | 0 mm | - | - | - |
| 1777747355 | 6.11° C | 60% | 1023.6 hPa | 0 mm | - | - | - |
| 1777746876 | 6.11° C | 59% | 1023.6 hPa | 0 mm | - | - | - |
| 1777746395 | 6.11° C | 59% | 1023.6 hPa | 0 mm | - | - | - |
| 1777745915 | 6.11° C | 58% | 1023.6 hPa | 0 mm | - | - | - |
| 1777745442 | 6.11° C | 59% | 1023.6 hPa | 0 mm | - | - | - |
| 1777744956 | 6.11° C | 58% | 1023.6 hPa | 0 mm | - | - | - |
| 1777744484 | 6.67° C | 57% | 1023.6 hPa | 0 mm | - | - | - |
| 1777744001 | 6.67° C | 56% | 1023.5 hPa | 0 mm | - | - | - |
| 1777743522 | 7.22° C | 61% | 1023.5 hPa | 0 mm | - | - | - |
| 1777743036 | 6.67° C | 59% | 1023.6 hPa | 0 mm | - | - | - |
| 1777742559 | 6.67° C | 62% | 1023.6 hPa | 0 mm | - | - | - |
| 1777742075 | 6.11° C | 59% | 1023.5 hPa | 0 mm | - | - | - |
| 1777741595 | 6.67° C | 58% | 1023.5 hPa | 0 mm | - | - | - |
| 1777741121 | 6.11° C | 60% | 1023.6 hPa | 0 mm | - | - | - |
| 1777740394 | 6.11° C | 60% | 1023.6 hPa | 0 mm | - | - | - |
| 1777739915 | 5.56° C | 60% | 1023.7 hPa | 0 mm | - | - | - |
| 1777739433 | 5.56° C | 62% | 1023.8 hPa | 0 mm | - | - | - |
| 1777738958 | 5.56° C | 62% | 1023.8 hPa | 0 mm | - | - | - |
| 1777738476 | 5.56° C | 59% | 1023.9 hPa | 0 mm | - | - | - |
| 1777737989 | 6.11° C | 60% | 1023.9 hPa | 0 mm | - | - | - |
* Rain latest hour (hover to see other rain measurements)
** Current wind speed in m/s (hover to see current wind gust speed)